Time,TemperatureF,DewpointF,PressureIn,WindDirection,WindDirectionDegrees,WindSpeedMPH,WindSpeedGustMPH,Humidity,HourlyPrecipIn,Conditions,Clouds,dailyrainin,SoftwareType,DateUTC
2013-11-21 00:00:00,40.3,36.1,30.00,East,90,1.8,1.8,85,0.00,,,0.00,WUHU216HW,2013-11-21 06:00:00,
2013-11-21 00:05:00,40.3,36.1,30.00,SE,135,2.0,2.9,85,0.00,,,0.00,WUHU216HW,2013-11-21 06:05:00,
2013-11-21 00:10:00,40.3,36.1,30.00,ESE,113,1.8,2.9,85,0.00,,,0.00,WUHU216HW,2013-11-21 06:10:00,
2013-11-21 00:15:00,40.5,36.3,30.00,ESE,113,1.8,2.9,85,0.00,,,0.00,WUHU216HW,2013-11-21 06:15:00,
2013-11-21 00:20:00,40.5,36.3,30.00,SE,135,2.5,3.6,85,0.00,,,0.00,WUHU216HW,2013-11-21 06:20:00,
2013-11-21 00:25:00,40.7,36.8,30.00,SE,135,2.9,3.6,86,0.00,,,0.00,WUHU216HW,2013-11-21 06:25:00,
2013-11-21 00:30:00,40.7,36.8,30.00,SE,135,3.1,3.4,86,0.00,,,0.00,WUHU216HW,2013-11-21 06:30:00,
2013-11-21 00:35:00,40.9,36.9,30.01,SE,135,2.9,3.4,86,0.00,,,0.00,WUHU216HW,2013-11-21 06:35:00,
2013-11-21 00:40:00,40.9,36.9,30.01,SE,135,2.0,3.4,86,0.00,,,0.00,WUHU216HW,2013-11-21 06:40:00,
2013-11-21 00:45:00,41.0,37.1,30.01,ESE,113,2.7,3.4,86,0.00,,,0.00,WUHU216HW,2013-11-21 06:45:00,
2013-11-21 00:50:00,41.2,37.3,30.01,SE,135,2.9,4.0,86,0.00,,,0.00,WUHU216HW,2013-11-21 06:50:00,
2013-11-21 00:55:00,41.4,37.4,30.01,SE,135,1.8,4.0,86,0.00,,,0.00,WUHU216HW,2013-11-21 06:55:00,
2013-11-21 01:00:00,41.4,37.4,30.01,ESE,113,4.0,4.0,86,0.00,,,0.00,WUHU216HW,2013-11-21 07:00:00,
2013-11-21 01:05:00,41.4,37.4,30.01,ESE,113,2.9,4.0,86,0.00,,,0.00,WUHU216HW,2013-11-21 07:05:00,
2013-11-21 01:10:00,41.4,37.2,30.02,South,180,3.4,3.4,85,0.00,,,0.00,WUHU216HW,2013-11-21 07:10:00,
2013-11-21 01:15:00,41.4,37.2,30.02,SE,135,2.5,3.4,85,0.00,,,0.00,WUHU216HW,2013-11-21 07:15:00,
2013-11-21 01:20:00,41.4,37.2,30.02,East,90,2.9,2.9,85,0.00,,,0.00,WUHU216HW,2013-11-21 07:20:00,
2013-11-21 01:25:00,41.4,37.2,30.02,ENE,68,1.3,2.9,85,0.00,,,0.00,WUHU216HW,2013-11-21 07:25:00,
2013-11-21 01:30:00,41.4,37.2,30.02,ESE,113,0.9,2.7,85,0.00,,,0.00,WUHU216HW,2013-11-21 07:30:00,
2013-11-21 01:35:00,41.4,37.2,30.02,ESE,113,1.8,2.5,85,0.00,,,0.00,WUHU216HW,2013-11-21 07:35:00,
2013-11-21 01:40:00,41.6,37.4,30.03,SE,135,1.8,1.8,85,0.00,,,0.00,WUHU216HW,2013-11-21 07:40:00,
2013-11-21 01:45:00,41.8,37.8,30.03,East,90,0.4,1.8,86,0.00,,,0.00,WUHU216HW,2013-11-21 07:45:00,
2013-11-21 01:50:00,42.1,38.2,30.03,ESE,113,2.2,2.2,86,0.00,,,0.00,WUHU216HW,2013-11-21 07:50:00,
2013-11-21 01:55:00,42.1,38.2,30.03,ESE,113,2.2,2.5,86,0.00,,,0.00,WUHU216HW,2013-11-21 07:55:00,
2013-11-21 02:00:00,42.3,38.1,30.03,ESE,113,2.5,2.5,85,0.00,,,0.00,WUHU216HW,2013-11-21 08:00:00,
2013-11-21 02:05:00,42.5,38.3,30.03,ESE,113,1.3,2.5,85,0.00,,,0.00,WUHU216HW,2013-11-21 08:05:00,
2013-11-21 02:10:00,42.5,38.3,30.03,East,90,1.8,2.0,85,0.00,,,0.00,WUHU216HW,2013-11-21 08:10:00,
2013-11-21 02:15:00,42.7,38.7,30.03,East,90,1.1,1.8,86,0.00,,,0.00,WUHU216HW,2013-11-21 08:15:00,
2013-11-21 02:20:00,42.7,38.4,30.03,East,90,1.1,1.3,85,0.00,,,0.00,WUHU216HW,2013-11-21 08:20:00,
2013-11-21 02:25:00,42.8,38.6,30.03,ENE,68,0.9,1.6,85,0.00,,,0.00,WUHU216HW,2013-11-21 08:25:00,
2013-11-21 02:30:00,42.8,38.6,30.03,East,90,1.6,1.6,85,0.00,,,0.00,WUHU216HW,2013-11-21 08:30:00,
2013-11-21 02:35:00,42.8,38.6,30.03,ESE,113,1.1,1.6,85,0.00,,,0.00,WUHU216HW,2013-11-21 08:35:00,
2013-11-21 02:40:00,42.8,38.6,30.03,East,90,0.4,1.1,85,0.00,,,0.00,WUHU216HW,2013-11-21 08:40:00,
2013-11-21 02:45:00,43.0,38.8,30.04,ESE,113,0.7,1.3,85,0.00,,,0.00,WUHU216HW,2013-11-21 08:45:00,
2013-11-21 02:50:00,42.8,38.6,30.04,ESE,113,1.1,1.3,85,0.00,,,0.00,WUHU216HW,2013-11-21 08:50:00,
2013-11-21 02:55:00,43.0,38.8,30.04,ESE,113,1.1,1.1,85,0.00,,,0.00,WUHU216HW,2013-11-21 08:55:00,
2013-11-21 03:00:00,43.2,39.0,30.04,SE,135,1.3,1.3,85,0.00,,,0.00,WUHU216HW,2013-11-21 09:00:00,
2013-11-21 03:05:00,43.0,38.8,30.04,ESE,113,0.7,1.8,85,0.00,,,0.00,WUHU216HW,2013-11-21 09:05:00,
2013-11-21 03:10:00,42.8,38.6,30.04,SE,135,1.1,1.8,85,0.00,,,0.00,WUHU216HW,2013-11-21 09:10:00,
2013-11-21 03:15:00,43.0,38.8,30.04,East,90,0.9,1.1,85,0.00,,,0.00,WUHU216HW,2013-11-21 09:15:00,
2013-11-21 03:17:00,43.2,39.0,30.03,East,90,1.1,1.1,85,0.00,,,0.00,WUHU216HW,2013-11-21 09:17:00,
2013-11-21 03:20:00,43.2,39.0,30.03,East,90,1.1,1.1,85,0.00,,,0.00,WUHU216HW,2013-11-21 09:20:00,
2013-11-21 03:25:00,43.2,39.0,30.03,East,90,1.1,1.1,85,0.00,,,0.00,WUHU216HW,2013-11-21 09:25:00,
2013-11-21 03:47:00,43.2,39.0,30.02,ESE,113,1.1,1.1,85,0.00,,,0.00,WUHU216HW,2013-11-21 09:47:00,
2013-11-21 03:52:00,43.2,39.2,30.02,East,90,1.6,1.8,86,0.00,,,0.00,WUHU216HW,2013-11-21 09:52:00,
2013-11-21 03:57:00,43.2,39.0,30.02,East,90,1.3,1.8,85,0.00,,,0.00,WUHU216HW,2013-11-21 09:57:00,
2013-11-21 04:02:00,43.2,39.0,30.02,ESE,113,0.9,1.6,85,0.00,,,0.00,WUHU216HW,2013-11-21 10:02:00,
2013-11-21 04:07:00,43.6,39.3,30.02,East,90,1.1,1.1,85,0.00,,,0.00,WUHU216HW,2013-11-21 10:07:00,
2013-11-21 04:12:00,43.6,39.3,30.03,ESE,113,0.0,1.1,85,0.00,,,0.00,WUHU216HW,2013-11-21 10:12:00,
2013-11-21 04:17:00,43.7,39.5,30.03,SE,135,1.1,1.1,85,0.00,,,0.00,WUHU216HW,2013-11-21 10:17:00,
2013-11-21 04:22:00,43.9,39.7,30.03,ESE,113,1.3,1.8,85,0.00,,,0.00,WUHU216HW,2013-11-21 10:22:00,
2013-11-21 04:27:00,44.1,39.9,30.03,ESE,113,1.6,1.8,85,0.00,,,0.00,WUHU216HW,2013-11-21 10:27:00,
2013-11-21 04:32:00,44.1,39.9,30.03,East,90,1.8,2.2,85,0.00,,,0.00,WUHU216HW,2013-11-21 10:32:00,
2013-11-21 04:37:00,43.9,39.7,30.03,SE,135,1.8,2.2,85,0.00,,,0.00,WUHU216HW,2013-11-21 10:37:00,
2013-11-21 04:42:00,43.9,39.4,30.04,SE,135,1.1,1.8,84,0.00,,,0.00,WUHU216HW,2013-11-21 10:42:00,
2013-11-21 04:47:00,44.1,39.6,30.04,ESE,113,1.1,1.6,84,0.00,,,0.00,WUHU216HW,2013-11-21 10:47:00,
2013-11-21 04:52:00,44.1,39.6,30.04,ESE,113,1.1,1.1,84,0.00,,,0.00,WUHU216HW,2013-11-21 10:52:00,
2013-11-21 05:00:00,44.3,39.8,30.04,ESE,113,1.1,1.1,84,0.00,,,0.00,WUHU216HW,2013-11-21 11:00:00,
2013-11-21 05:05:00,44.3,39.8,30.04,ESE,113,1.8,1.8,84,0.00,,,0.00,WUHU216HW,2013-11-21 11:05:00,
2013-11-21 05:10:00,44.3,39.8,30.04,SE,135,1.3,2.2,84,0.00,,,0.00,WUHU216HW,2013-11-21 11:10:00,
2013-11-21 05:15:00,44.3,39.8,30.04,ESE,113,2.2,2.2,84,0.00,,,0.00,WUHU216HW,2013-11-21 11:15:00,
2013-11-21 05:20:00,44.3,39.8,30.05,SE,135,2.0,2.2,84,0.00,,,0.00,WUHU216HW,2013-11-21 11:20:00,
2013-11-21 05:25:00,44.3,39.8,30.05,ESE,113,2.0,2.5,84,0.00,,,0.00,WUHU216HW,2013-11-21 11:25:00,
2013-11-21 05:27:00,44.3,39.8,30.05,ESE,113,1.3,1.3,84,0.00,,,0.00,WUHU216HW,2013-11-21 11:27:00,
2013-11-21 05:30:00,44.3,39.8,30.05,ESE,113,1.3,2.5,84,0.00,,,0.00,WUHU216HW,2013-11-21 11:30:00,
2013-11-21 05:35:00,44.3,39.8,30.05,ESE,113,1.3,1.8,84,0.00,,,0.00,WUHU216HW,2013-11-21 11:35:00,
2013-11-21 05:57:00,43.9,39.4,30.05,ENE,68,1.1,1.1,84,0.00,,,0.00,WUHU216HW,2013-11-21 11:57:00,
2013-11-21 06:02:00,43.9,39.4,30.04,NE,45,1.3,1.6,84,0.00,,,0.00,WUHU216HW,2013-11-21 12:02:00,
2013-11-21 06:07:00,44.1,39.6,30.05,NE,45,1.1,1.8,84,0.00,,,0.00,WUHU216HW,2013-11-21 12:07:00,
2013-11-21 06:12:00,44.3,39.8,30.05,NNE,23,1.8,1.8,84,0.00,,,0.00,WUHU216HW,2013-11-21 12:12:00,
2013-11-21 06:17:00,44.3,39.8,30.05,NNE,23,1.1,1.8,84,0.00,,,0.00,WUHU216HW,2013-11-21 12:17:00,
2013-11-21 06:22:00,44.6,40.2,30.05,NE,45,0.2,1.8,84,0.00,,,0.00,WUHU216HW,2013-11-21 12:22:00,
2013-11-21 06:27:00,44.6,39.8,30.06,NE,45,0.0,1.3,83,0.00,,,0.00,WUHU216HW,2013-11-21 12:27:00,
2013-11-21 06:32:00,44.8,40.0,30.06,NNE,23,0.2,0.4,83,0.00,,,0.00,WUHU216HW,2013-11-21 12:32:00,
2013-11-21 06:37:00,45.0,40.1,30.07,NNE,23,0.9,0.9,83,0.00,,,0.00,WUHU216HW,2013-11-21 12:37:00,
2013-11-21 06:42:00,45.2,40.3,30.07,NNE,23,0.4,0.9,83,0.00,,,0.00,WUHU216HW,2013-11-21 12:42:00,
2013-11-21 06:47:00,45.2,40.3,30.08,North,0,0.2,0.9,83,0.00,,,0.00,WUHU216HW,2013-11-21 12:47:00,
2013-11-21 06:52:00,45.2,40.3,30.08,NNW,338,0.0,0.4,83,0.00,,,0.00,WUHU216HW,2013-11-21 12:52:00,
2013-11-21 06:57:00,45.2,40.3,30.08,NNW,338,0.2,0.4,83,0.00,,,0.00,WUHU216HW,2013-11-21 12:57:00,
2013-11-21 07:02:00,45.2,40.3,30.09,North,0,0.0,0.7,83,0.00,,,0.00,WUHU216HW,2013-11-21 13:02:00,
2013-11-21 07:07:00,45.4,40.5,30.09,North,0,0.0,0.7,83,0.00,,,0.00,WUHU216HW,2013-11-21 13:07:00,
2013-11-21 07:12:00,45.5,40.7,30.09,NNE,23,0.9,0.9,83,0.00,,,0.00,WUHU216HW,2013-11-21 13:12:00,
2013-11-21 07:17:00,45.7,40.9,30.10,NNW,338,0.0,1.1,83,0.00,,,0.00,WUHU216HW,2013-11-21 13:17:00,
2013-11-21 07:22:00,45.7,40.6,30.10,NNW,338,0.2,1.1,82,0.00,,,0.00,WUHU216HW,2013-11-21 13:22:00,
2013-11-21 07:27:00,45.7,40.6,30.10,NNW,338,0.7,1.3,82,0.00,,,0.00,WUHU216HW,2013-11-21 13:27:00,
2013-11-21 07:32:00,45.5,40.4,30.10,NNW,338,1.1,2.0,82,0.00,,,0.00,WUHU216HW,2013-11-21 13:32:00,
2013-11-21 07:37:00,45.4,40.2,30.10,North,0,0.2,2.0,82,0.00,,,0.00,WUHU216HW,2013-11-21 13:37:00,
2013-11-21 07:42:00,45.5,40.7,30.11,NW,315,5.6,5.6,83,0.00,,,0.00,WUHU216HW,2013-11-21 13:42:00,
2013-11-21 07:47:00,45.0,40.5,30.11,WNW,293,4.7,7.8,84,0.00,,,0.00,WUHU216HW,2013-11-21 13:47:00,
2013-11-21 07:52:00,44.8,40.3,30.11,North,0,3.1,7.8,84,0.00,,,0.00,WUHU216HW,2013-11-21 13:52:00,
2013-11-21 07:57:00,44.6,40.4,30.12,NW,315,4.9,6.7,85,0.00,,,0.00,WUHU216HW,2013-11-21 13:57:00,
2013-11-21 08:02:00,44.5,40.2,30.12,NNE,23,3.8,6.7,85,0.00,,,0.00,WUHU216HW,2013-11-21 14:02:00,
2013-11-21 08:07:00,44.5,40.2,30.12,NNW,338,2.7,5.6,85,0.00,,,0.00,WUHU216HW,2013-11-21 14:07:00,
2013-11-21 08:12:00,44.3,40.1,30.12,NNW,338,6.9,6.9,85,0.00,,,0.00,WUHU216HW,2013-11-21 14:12:00,
2013-11-21 08:13:00,44.3,40.1,30.12,NNW,338,5.6,5.6,85,0.00,,,0.00,WUHU216HW,2013-11-21 14:13:00,
2013-11-21 08:17:00,44.3,40.1,30.12,NNW,338,5.6,6.9,85,0.00,,,0.00,WUHU216HW,2013-11-21 14:17:00,
2013-11-21 08:22:00,44.3,40.1,30.12,NNW,338,5.6,5.6,85,0.00,,,0.00,WUHU216HW,2013-11-21 14:22:00,
2013-11-21 08:43:00,44.1,39.9,30.13,NNW,338,2.7,2.7,85,0.00,,,0.00,WUHU216HW,2013-11-21 14:43:00,
2013-11-21 08:48:00,44.3,40.1,30.13,North,0,1.6,3.4,85,0.00,,,0.00,WUHU216HW,2013-11-21 14:48:00,
2013-11-21 08:53:00,44.1,39.9,30.13,NNW,338,4.0,5.1,85,0.00,,,0.00,WUHU216HW,2013-11-21 14:53:00,
2013-11-21 08:58:00,44.1,39.9,30.13,North,0,3.4,5.1,85,0.00,,,0.00,WUHU216HW,2013-11-21 14:58:00,
2013-11-21 09:03:00,44.1,39.9,30.14,NNW,338,6.7,6.9,85,0.00,,,0.00,WUHU216HW,2013-11-21 15:03:00,
2013-11-21 09:08:00,43.9,39.7,30.14,NW,315,5.6,7.4,85,0.00,,,0.00,WUHU216HW,2013-11-21 15:08:00,
2013-11-21 09:13:00,43.9,39.7,30.14,North,0,5.1,7.4,85,0.00,,,0.00,WUHU216HW,2013-11-21 15:13:00,
2013-11-21 09:18:00,43.9,39.7,30.15,North,0,6.3,6.3,85,0.00,,,0.00,WUHU216HW,2013-11-21 15:18:00,
2013-11-21 09:23:00,43.9,39.7,30.15,NNW,338,5.4,6.3,85,0.00,,,0.00,WUHU216HW,2013-11-21 15:23:00,
2013-11-21 09:28:00,43.9,39.7,30.15,NW,315,4.5,6.3,85,0.00,,,0.00,WUHU216HW,2013-11-21 15:28:00,
2013-11-21 09:33:00,43.9,39.7,30.15,NNW,338,3.8,6.3,85,0.00,,,0.00,WUHU216HW,2013-11-21 15:33:00,
2013-11-21 09:38:00,43.9,39.7,30.15,NNW,338,6.7,6.7,85,0.00,,,0.00,WUHU216HW,2013-11-21 15:38:00,
2013-11-21 09:43:00,43.9,39.7,30.15,North,0,4.7,6.7,85,0.00,,,0.00,WUHU216HW,2013-11-21 15:43:00,
2013-11-21 09:48:00,43.9,39.7,30.15,North,0,4.7,4.7,85,0.00,,,0.00,WUHU216HW,2013-11-21 15:48:00,
2013-11-21 10:00:00,43.6,39.6,30.16,North,0,4.7,4.7,86,0.00,,,0.00,WUHU216HW,2013-11-21 16:00:00,
2013-11-21 10:05:00,43.6,39.6,30.16,NNW,338,6.3,6.5,86,0.00,,,0.00,WUHU216HW,2013-11-21 16:05:00,
2013-11-21 10:10:00,43.6,39.6,30.16,NNW,338,6.5,6.9,86,0.00,,,0.00,WUHU216HW,2013-11-21 16:10:00,
2013-11-21 10:15:00,43.6,39.6,30.17,North,0,2.9,6.9,86,0.00,,,0.00,WUHU216HW,2013-11-21 16:15:00,
2013-11-21 10:20:00,43.6,39.6,30.17,North,0,3.8,6.3,86,0.00,,,0.00,WUHU216HW,2013-11-21 16:20:00,
2013-11-21 10:23:00,43.6,39.6,30.17,NNE,23,3.8,3.8,86,0.00,,,0.00,WUHU216HW,2013-11-21 16:23:00,
2013-11-21 10:25:00,43.6,39.6,30.17,NNE,23,3.8,6.3,86,0.00,,,0.00,WUHU216HW,2013-11-21 16:25:00,
2013-11-21 10:30:00,43.6,39.6,30.17,NNE,23,3.8,4.0,86,0.00,,,0.00,WUHU216HW,2013-11-21 16:30:00,
2013-11-21 10:53:00,43.6,40.0,30.18,NNW,338,4.0,4.0,87,0.01,,,0.00,WUHU216HW,2013-11-21 16:53:00,
2013-11-21 10:58:00,43.6,40.0,30.18,NW,315,5.4,6.0,87,0.01,,,0.01,WUHU216HW,2013-11-21 16:58:00,
2013-11-21 11:03:00,43.6,40.0,30.18,NNE,23,6.0,6.3,87,0.01,,,0.01,WUHU216HW,2013-11-21 17:03:00,
2013-11-21 11:08:00,43.4,39.8,30.18,NE,45,5.4,6.5,87,0.01,,,0.01,WUHU216HW,2013-11-21 17:08:00,
2013-11-21 11:13:00,43.4,40.1,30.17,NNW,338,4.7,6.5,88,0.01,,,0.01,WUHU216HW,2013-11-21 17:13:00,
2013-11-21 11:18:00,43.4,40.1,30.18,NW,315,7.6,7.6,88,0.01,,,0.01,WUHU216HW,2013-11-21 17:18:00,
2013-11-21 11:23:00,43.4,40.1,30.17,NW,315,6.3,7.6,88,0.01,,,0.01,WUHU216HW,2013-11-21 17:23:00,
2013-11-21 11:28:00,43.2,39.6,30.18,North,0,3.4,7.8,87,0.01,,,0.01,WUHU216HW,2013-11-21 17:28:00,
2013-11-21 11:33:00,43.0,39.4,30.18,NW,315,6.0,7.8,87,0.00,,,0.01,WUHU216HW,2013-11-21 17:33:00,
2013-11-21 11:38:00,43.0,39.4,30.17,NNW,338,4.7,6.9,87,0.00,,,0.01,WUHU216HW,2013-11-21 17:38:00,
2013-11-21 11:43:00,42.8,39.3,30.17,NW,315,5.1,5.6,87,0.00,,,0.01,WUHU216HW,2013-11-21 17:43:00,
2013-11-21 11:48:00,42.8,39.3,30.16,North,0,8.3,8.3,87,0.00,,,0.01,WUHU216HW,2013-11-21 17:48:00,
2013-11-21 11:53:00,42.8,39.3,30.17,NNE,23,6.9,8.3,87,0.00,,,0.01,WUHU216HW,2013-11-21 17:53:00,
2013-11-21 11:58:00,42.8,39.3,30.17,East,90,2.0,6.9,87,0.00,,,0.01,WUHU216HW,2013-11-21 17:58:00,
2013-11-21 12:03:00,42.8,39.3,30.17,North,0,1.6,5.6,87,0.00,,,0.01,WUHU216HW,2013-11-21 18:03:00,
2013-11-21 12:08:00,42.8,39.3,30.17,NNW,338,3.4,5.8,87,0.00,,,0.01,WUHU216HW,2013-11-21 18:08:00,
2013-11-21 12:13:00,42.8,39.3,30.17,NNW,338,2.9,5.8,87,0.00,,,0.01,WUHU216HW,2013-11-21 18:13:00,
2013-11-21 12:18:00,42.8,39.3,30.17,NNW,338,3.6,6.0,87,0.00,,,0.01,WUHU216HW,2013-11-21 18:18:00,
2013-11-21 12:23:00,42.7,39.1,30.17,North,0,3.6,6.0,87,0.00,,,0.01,WUHU216HW,2013-11-21 18:23:00,
2013-11-21 12:28:00,42.7,39.1,30.17,WNW,293,6.3,7.4,87,0.00,,,0.01,WUHU216HW,2013-11-21 18:28:00,
2013-11-21 12:33:00,42.5,38.9,30.17,NNW,338,3.4,7.6,87,0.00,,,0.01,WUHU216HW,2013-11-21 18:33:00,
2013-11-21 12:38:00,42.5,38.9,30.18,North,0,4.0,7.6,87,0.00,,,0.01,WUHU216HW,2013-11-21 18:38:00,
2013-11-21 12:43:00,42.3,39.0,30.17,NNW,338,4.7,4.7,88,0.00,,,0.01,WUHU216HW,2013-11-21 18:43:00,
2013-11-21 12:48:00,42.3,39.0,30.17,NW,315,4.7,8.3,88,0.00,,,0.01,WUHU216HW,2013-11-21 18:48:00,
2013-11-21 12:53:00,42.1,38.8,30.17,North,0,5.4,9.8,88,0.00,,,0.01,WUHU216HW,2013-11-21 18:53:00,
2013-11-21 12:58:00,41.9,38.6,30.17,North,0,4.7,9.8,88,0.00,,,0.01,WUHU216HW,2013-11-21 18:58:00,
2013-11-21 13:03:00,41.6,38.3,30.17,NNE,23,3.8,7.2,88,0.00,,,0.01,WUHU216HW,2013-11-21 19:03:00,
2013-11-21 13:04:00,41.6,38.3,30.17,NNW,338,2.2,2.2,88,0.00,,,0.01,WUHU216HW,2013-11-21 19:04:00,
2013-11-21 13:08:00,41.6,38.3,30.17,NNW,338,2.2,6.3,88,0.00,,,0.01,WUHU216HW,2013-11-21 19:08:00,
2013-11-21 13:13:00,41.6,38.3,30.17,NNW,338,2.2,2.2,88,0.00,,,0.01,WUHU216HW,2013-11-21 19:13:00,
2013-11-21 13:34:00,40.7,37.7,30.18,NNE,23,6.5,6.5,89,0.00,,,0.01,WUHU216HW,2013-11-21 19:34:00,
2013-11-21 13:39:00,40.5,37.5,30.18,NW,315,2.9,6.5,89,0.00,,,0.01,WUHU216HW,2013-11-21 19:39:00,
2013-11-21 13:44:00,40.3,37.4,30.18,NNW,338,6.0,6.5,89,0.00,,,0.01,WUHU216HW,2013-11-21 19:44:00,
2013-11-21 13:49:00,40.3,37.4,30.18,NNW,338,1.3,7.8,89,0.00,,,0.01,WUHU216HW,2013-11-21 19:49:00,
2013-11-21 13:54:00,40.1,37.2,30.18,NNW,338,4.9,7.8,89,0.00,,,0.01,WUHU216HW,2013-11-21 19:54:00,
2013-11-21 13:59:00,40.0,37.0,30.18,NNW,338,5.8,8.5,89,0.00,,,0.01,WUHU216HW,2013-11-21 19:59:00,
2013-11-21 14:04:00,40.0,37.0,30.18,ENE,68,6.3,8.9,89,0.00,,,0.01,WUHU216HW,2013-11-21 20:04:00,
2013-11-21 14:09:00,40.0,37.0,30.18,North,0,6.0,8.9,89,0.00,,,0.01,WUHU216HW,2013-11-21 20:09:00,
2013-11-21 14:14:00,40.0,37.0,30.18,NNE,23,4.0,10.5,89,0.00,,,0.01,WUHU216HW,2013-11-21 20:14:00,
2013-11-21 14:19:00,40.0,37.3,30.18,East,90,3.6,10.5,90,0.00,,,0.01,WUHU216HW,2013-11-21 20:19:00,
2013-11-21 14:24:00,40.0,37.3,30.18,North,0,5.1,6.3,90,0.00,,,0.01,WUHU216HW,2013-11-21 20:24:00,
2013-11-21 14:29:00,40.0,37.3,30.18,NW,315,8.1,8.1,90,0.00,,,0.01,WUHU216HW,2013-11-21 20:29:00,
2013-11-21 14:34:00,39.2,36.0,30.19,North,0,7.8,11.4,88,0.00,,,0.01,WUHU216HW,2013-11-21 20:34:00,
2013-11-21 14:39:00,38.7,35.7,30.19,North,0,8.5,11.4,89,0.00,,,0.01,WUHU216HW,2013-11-21 20:39:00,
2013-11-21 14:44:00,38.3,35.4,30.19,NNW,338,2.2,9.4,89,0.00,,,0.01,WUHU216HW,2013-11-21 20:44:00,
2013-11-21 14:49:00,38.2,35.2,30.19,NNW,338,9.8,9.8,89,0.00,,,0.01,WUHU216HW,2013-11-21 20:49:00,
2013-11-21 14:54:00,38.0,35.0,30.20,NNE,23,4.0,9.8,89,0.00,,,0.01,WUHU216HW,2013-11-21 20:54:00,
2013-11-21 14:59:00,37.4,33.8,30.20,NE,45,7.8,9.2,87,0.00,,,0.01,WUHU216HW,2013-11-21 20:59:00,
2013-11-21 15:04:00,36.7,33.5,30.20,NNW,338,7.6,9.6,88,0.00,,,0.01,WUHU216HW,2013-11-21 21:04:00,
2013-11-21 15:09:00,36.4,33.1,30.21,North,0,4.7,9.6,88,0.00,,,0.01,WUHU216HW,2013-11-21 21:09:00,
2013-11-21 15:14:00,36.4,33.4,30.21,North,0,3.4,9.2,89,0.00,,,0.01,WUHU216HW,2013-11-21 21:14:00,
2013-11-21 15:19:00,36.4,33.1,30.22,NNW,338,10.5,12.5,88,0.00,,,0.01,WUHU216HW,2013-11-21 21:19:00,
2013-11-21 15:24:00,35.8,32.6,30.21,NNE,23,4.5,12.5,88,0.00,,,0.01,WUHU216HW,2013-11-21 21:24:00,
2013-11-21 15:29:00,35.6,32.4,30.21,North,0,4.7,10.5,88,0.00,,,0.01,WUHU216HW,2013-11-21 21:29:00,
2013-11-21 15:34:00,35.6,32.7,30.22,North,0,5.1,10.5,89,0.00,,,0.01,WUHU216HW,2013-11-21 21:34:00,
2013-11-21 15:39:00,35.5,32.5,30.22,East,90,3.6,8.9,89,0.00,,,0.01,WUHU216HW,2013-11-21 21:39:00,
2013-11-21 15:44:00,35.3,32.3,30.23,NNW,338,6.3,8.5,89,0.00,,,0.01,WUHU216HW,2013-11-21 21:44:00,
2013-11-21 15:49:00,35.1,32.1,30.23,ENE,68,5.1,9.4,89,0.00,,,0.01,WUHU216HW,2013-11-21 21:49:00,
2013-11-21 15:54:00,35.1,32.1,30.24,NNW,338,4.9,9.4,89,0.00,,,0.01,WUHU216HW,2013-11-21 21:54:00,
2013-11-21 15:59:00,35.1,32.1,30.24,NNE,23,4.9,6.9,89,0.00,,,0.01,WUHU216HW,2013-11-21 21:59:00,
2013-11-21 16:04:00,34.9,32.0,30.25,NNW,338,8.7,8.7,89,0.00,,,0.01,WUHU216HW,2013-11-21 22:04:00,
2013-11-21 16:09:00,34.6,31.6,30.24,NNW,338,11.4,11.4,89,0.00,,,0.01,WUHU216HW,2013-11-21 22:09:00,
2013-11-21 16:14:00,34.2,31.2,30.25,ENE,68,11.2,11.4,89,0.00,,,0.01,WUHU216HW,2013-11-21 22:14:00,
2013-11-21 16:19:00,34.0,31.1,30.24,NNE,23,8.5,11.2,89,0.00,,,0.01,WUHU216HW,2013-11-21 22:19:00,
2013-11-21 16:24:00,33.8,30.9,30.24,NNW,338,9.2,9.2,89,0.00,,,0.01,WUHU216HW,2013-11-21 22:24:00,
2013-11-21 16:29:00,33.8,30.9,30.25,North,0,6.7,9.2,89,0.00,,,0.01,WUHU216HW,2013-11-21 22:29:00,
2013-11-21 16:34:00,33.8,30.9,30.26,NNW,338,5.4,8.7,89,0.00,,,0.01,WUHU216HW,2013-11-21 22:34:00,
2013-11-21 16:39:00,33.8,30.9,30.26,North,0,6.5,8.5,89,0.00,,,0.01,WUHU216HW,2013-11-21 22:39:00,
2013-11-21 16:44:00,33.7,30.7,30.26,NNW,338,5.6,7.2,89,0.00,,,0.01,WUHU216HW,2013-11-21 22:44:00,
2013-11-21 16:49:00,33.5,30.5,30.27,East,90,4.0,8.5,89,0.00,,,0.01,WUHU216HW,2013-11-21 22:49:00,
2013-11-21 16:54:00,33.5,30.5,30.27,WNW,293,7.6,8.5,89,0.00,,,0.01,WUHU216HW,2013-11-21 22:54:00,
2013-11-21 16:59:00,33.5,30.5,30.27,North,0,7.4,7.6,89,0.00,,,0.01,WUHU216HW,2013-11-21 22:59:00,
2013-11-21 17:04:00,33.3,30.3,30.27,NE,45,0.0,9.2,89,0.00,,,0.01,WUHU216HW,2013-11-21 23:04:00,
2013-11-21 17:09:00,33.1,30.3,30.27,NW,315,0.0,9.2,89,0.00,,,0.01,WUHU216HW,2013-11-21 23:09:00,
2013-11-21 17:14:00,32.9,30.1,30.28,NNE,23,0.0,0.0,89,0.00,,,0.01,WUHU216HW,2013-11-21 23:14:00,
2013-11-21 17:19:00,32.8,29.9,30.28,NNE,23,0.0,0.0,89,0.00,,,0.01,WUHU216HW,2013-11-21 23:19:00,
2013-11-21 17:24:00,32.8,29.9,30.27,NNE,23,0.0,0.0,89,0.00,,,0.01,WUHU216HW,2013-11-21 23:24:00,
2013-11-21 17:29:00,32.8,29.9,30.28,NNE,23,0.0,0.0,89,0.00,,,0.01,WUHU216HW,2013-11-21 23:29:00,
2013-11-21 17:34:00,32.8,29.9,30.29,NNE,23,0.0,0.0,89,0.00,,,0.01,WUHU216HW,2013-11-21 23:34:00,
2013-11-21 17:39:00,32.9,30.1,30.29,NNE,23,0.0,0.0,89,0.00,,,0.01,WUHU216HW,2013-11-21 23:39:00,
2013-11-21 17:44:00,32.8,29.9,30.30,NNE,23,0.0,0.0,89,0.00,,,0.01,WUHU216HW,2013-11-21 23:44:00,
2013-11-21 17:49:00,32.8,29.9,30.31,NNE,23,0.0,0.0,89,0.00,,,0.01,WUHU216HW,2013-11-21 23:49:00,
2013-11-21 17:54:00,32.8,29.9,30.31,NNE,23,0.0,0.0,89,0.00,,,0.01,WUHU216HW,2013-11-21 23:54:00,
2013-11-21 17:59:00,32.8,29.9,30.31,NNE,23,0.0,0.0,89,0.00,,,0.01,WUHU216HW,2013-11-21 23:59:00,
2013-11-21 18:04:00,32.6,29.7,30.30,NNE,23,0.0,0.0,89,0.00,,,0.01,WUHU216HW,2013-11-22 00:04:00,
2013-11-21 18:09:00,32.6,29.7,30.30,NNE,23,0.0,0.0,89,0.00,,,0.01,WUHU216HW,2013-11-22 00:09:00,
2013-11-21 18:14:00,32.6,29.7,30.31,NNE,23,0.0,0.0,89,0.00,,,0.01,WUHU216HW,2013-11-22 00:14:00,
2013-11-21 18:19:00,32.4,29.5,30.31,NNE,23,0.0,0.0,89,0.00,,,0.01,WUHU216HW,2013-11-22 00:19:00,
2013-11-21 18:24:00,32.4,29.5,30.31,NNE,23,0.0,0.0,89,0.00,,,0.01,WUHU216HW,2013-11-22 00:24:00,
2013-11-21 18:29:00,32.2,29.4,30.32,NNE,23,0.0,0.0,89,0.00,,,0.01,WUHU216HW,2013-11-22 00:29:00,
2013-11-21 18:34:00,32.0,29.3,30.33,NNE,23,0.0,0.0,89,0.00,,,0.01,WUHU216HW,2013-11-22 00:34:00,
2013-11-21 18:39:00,32.0,29.3,30.33,NNE,23,0.0,0.0,89,0.00,,,0.01,WUHU216HW,2013-11-22 00:39:00,
2013-11-21 18:44:00,31.9,29.1,30.33,NNE,23,0.0,0.0,89,0.00,,,0.01,WUHU216HW,2013-11-22 00:44:00,
2013-11-21 18:49:00,31.9,29.1,30.33,NNE,23,0.0,0.0,89,0.00,,,0.01,WUHU216HW,2013-11-22 00:49:00,
2013-11-21 18:54:00,31.9,29.1,30.33,NNE,23,0.0,0.0,89,0.00,,,0.01,WUHU216HW,2013-11-22 00:54:00,
2013-11-21 18:59:00,31.9,29.3,30.33,NNE,23,0.0,0.0,90,0.00,,,0.01,WUHU216HW,2013-11-22 00:59:00,
2013-11-21 19:04:00,31.9,29.1,30.33,NNE,23,0.0,0.0,89,0.00,,,0.01,WUHU216HW,2013-11-22 01:04:00,
2013-11-21 19:09:00,31.9,29.3,30.33,NNE,23,0.0,0.0,90,0.00,,,0.01,WUHU216HW,2013-11-22 01:09:00,
2013-11-21 19:14:00,31.7,28.9,30.33,NNE,23,0.0,0.0,89,0.00,,,0.01,WUHU216HW,2013-11-22 01:14:00,
2013-11-21 19:19:00,31.7,28.9,30.34,NNE,23,0.0,0.0,89,0.00,,,0.01,WUHU216HW,2013-11-22 01:19:00,
2013-11-21 19:24:00,31.5,28.7,30.34,NNE,23,0.0,0.0,89,0.00,,,0.01,WUHU216HW,2013-11-22 01:24:00,
2013-11-21 19:29:00,31.5,28.7,30.34,NNE,23,0.0,0.0,89,0.00,,,0.01,WUHU216HW,2013-11-22 01:29:00,
2013-11-21 19:34:00,31.3,28.5,30.34,NNE,23,0.0,0.0,89,0.00,,,0.01,WUHU216HW,2013-11-22 01:34:00,
2013-11-21 19:35:00,31.3,28.5,30.34,NNE,23,0.0,0.0,89,0.00,,,0.01,WUHU216HW,2013-11-22 01:35:00,
2013-11-21 19:39:00,31.3,28.5,30.34,NNE,23,0.0,0.0,89,0.00,,,0.01,WUHU216HW,2013-11-22 01:39:00,
2013-11-21 19:44:00,31.3,28.5,30.34,NNE,23,0.0,0.0,89,0.00,,,0.01,WUHU216HW,2013-11-22 01:44:00,
2013-11-21 20:00:00,31.1,28.4,30.35,NNE,23,0.0,0.0,89,0.00,,,0.01,WUHU216HW,2013-11-22 02:00:00,
2013-11-21 20:05:00,31.0,28.2,30.36,NNE,23,0.0,0.0,89,0.00,,,0.01,WUHU216HW,2013-11-22 02:05:00,
2013-11-21 20:08:00,31.0,28.2,30.36,NNE,23,0.0,0.0,89,0.00,,,0.01,WUHU216HW,2013-11-22 02:08:00,
2013-11-21 20:09:00,31.0,28.2,30.36,NNE,23,0.0,0.0,89,0.00,,,0.01,WUHU216HW,2013-11-22 02:09:00,
2013-11-21 20:14:00,31.0,28.2,30.36,NNE,23,0.0,0.0,89,0.00,,,0.01,WUHU216HW,2013-11-22 02:14:00,
2013-11-21 20:19:00,31.0,28.2,30.36,NNE,23,0.0,0.0,89,0.00,,,0.01,WUHU216HW,2013-11-22 02:19:00,
2013-11-21 20:24:00,31.0,28.2,30.37,NNE,23,0.0,0.0,89,0.00,,,0.01,WUHU216HW,2013-11-22 02:24:00,
2013-11-21 20:29:00,30.8,28.0,30.37,NNE,23,0.0,0.0,89,0.00,,,0.01,WUHU216HW,2013-11-22 02:29:00,
2013-11-21 20:34:00,30.8,28.0,30.37,NNE,23,0.0,0.0,89,0.00,,,0.01,WUHU216HW,2013-11-22 02:34:00,
2013-11-21 20:39:00,30.8,28.0,30.38,NNE,23,0.0,0.0,89,0.00,,,0.01,WUHU216HW,2013-11-22 02:39:00,
2013-11-21 20:44:00,30.8,27.7,30.37,NNE,23,0.0,0.0,88,0.00,,,0.01,WUHU216HW,2013-11-22 02:44:00,
2013-11-21 20:49:00,30.8,28.0,30.38,NNE,23,0.0,0.0,89,0.00,,,0.01,WUHU216HW,2013-11-22 02:49:00,
2013-11-21 20:54:00,30.6,27.6,30.38,NNE,23,0.0,0.0,88,0.00,,,0.01,WUHU216HW,2013-11-22 02:54:00,
2013-11-21 20:59:00,30.6,27.8,30.39,NNE,23,0.0,0.0,89,0.00,,,0.01,WUHU216HW,2013-11-22 02:59:00,
2013-11-21 21:04:00,30.6,27.8,30.39,NNE,23,0.0,0.0,89,0.00,,,0.01,WUHU216HW,2013-11-22 03:04:00,
2013-11-21 21:09:00,30.6,27.8,30.39,NNE,23,0.0,0.0,89,0.00,,,0.01,WUHU216HW,2013-11-22 03:09:00,
2013-11-21 21:14:00,30.8,28.0,30.39,NNE,23,0.0,0.0,89,0.00,,,0.01,WUHU216HW,2013-11-22 03:14:00,
2013-11-21 21:19:00,30.8,28.0,30.39,NNE,23,0.0,0.0,89,0.00,,,0.01,WUHU216HW,2013-11-22 03:19:00,
2013-11-21 21:24:00,30.8,28.0,30.39,NNE,23,0.0,0.0,89,0.00,,,0.01,WUHU216HW,2013-11-22 03:24:00,
2013-11-21 21:29:00,30.8,28.0,30.40,NNE,23,0.0,0.0,89,0.00,,,0.01,WUHU216HW,2013-11-22 03:29:00,
2013-11-21 21:34:00,30.6,27.8,30.40,NNE,23,0.0,0.0,89,0.00,,,0.01,WUHU216HW,2013-11-22 03:34:00,
2013-11-21 21:39:00,30.6,27.8,30.40,NNE,23,0.0,0.0,89,0.00,,,0.01,WUHU216HW,2013-11-22 03:39:00,
2013-11-21 21:44:00,30.4,27.6,30.41,NNE,23,0.0,0.0,89,0.00,,,0.01,WUHU216HW,2013-11-22 03:44:00,
2013-11-21 21:49:00,30.1,27.0,30.41,NNE,23,0.0,0.0,88,0.00,,,0.01,WUHU216HW,2013-11-22 03:49:00,
2013-11-21 21:54:00,29.9,26.5,30.41,NNE,23,0.0,0.0,87,0.00,,,0.01,WUHU216HW,2013-11-22 03:54:00,
2013-11-21 21:59:00,29.5,25.8,30.41,NNE,23,0.0,0.0,86,0.00,,,0.01,WUHU216HW,2013-11-22 03:59:00,
2013-11-21 22:04:00,29.3,25.9,30.41,NNE,23,0.0,0.0,87,0.00,,,0.01,WUHU216HW,2013-11-22 04:04:00,
2013-11-21 22:09:00,29.3,25.9,30.41,NNE,23,0.0,0.0,87,0.00,,,0.01,WUHU216HW,2013-11-22 04:09:00,
2013-11-21 22:13:00,29.2,25.7,30.41,NNE,23,0.0,0.0,87,0.00,,,0.01,WUHU216HW,2013-11-22 04:13:00,
2013-11-21 22:18:00,29.2,25.7,30.41,NNE,23,0.0,0.0,87,0.00,,,0.01,WUHU216HW,2013-11-22 04:18:00,
2013-11-21 22:23:00,29.2,25.7,30.42,NNE,23,0.0,0.0,87,0.00,,,0.01,WUHU216HW,2013-11-22 04:23:00,
2013-11-21 22:28:00,29.0,25.3,30.42,NNE,23,0.0,0.0,86,0.00,,,0.01,WUHU216HW,2013-11-22 04:28:00,
2013-11-21 22:33:00,29.0,25.3,30.42,NNE,23,0.0,0.0,86,0.00,,,0.01,WUHU216HW,2013-11-22 04:33:00,
2013-11-21 22:38:00,28.8,25.1,30.43,NNE,23,0.0,0.0,86,0.00,,,0.01,WUHU216HW,2013-11-22 04:38:00,
2013-11-21 22:43:00,28.8,25.4,30.42,NNE,23,0.0,0.0,87,0.00,,,0.01,WUHU216HW,2013-11-22 04:43:00,
2013-11-21 22:48:00,28.8,25.4,30.43,NNE,23,0.0,0.0,87,0.00,,,0.01,WUHU216HW,2013-11-22 04:48:00,
2013-11-21 22:53:00,28.8,25.1,30.43,NNE,23,0.0,0.0,86,0.00,,,0.01,WUHU216HW,2013-11-22 04:53:00,
2013-11-21 22:58:00,28.8,25.1,30.44,NNE,23,0.0,0.0,86,0.00,,,0.01,WUHU216HW,2013-11-22 04:58:00,
2013-11-21 23:01:00,28.8,25.1,30.44,NNE,23,0.0,0.0,86,0.00,,,0.01,WUHU216HW,2013-11-22 05:01:00,
2013-11-21 23:06:00,28.8,25.1,30.44,NNE,23,0.0,0.0,86,0.00,,,0.01,WUHU216HW,2013-11-22 05:06:00,
2013-11-21 23:11:00,28.6,24.9,30.45,NNE,23,0.0,0.0,86,0.00,,,0.01,WUHU216HW,2013-11-22 05:11:00,
2013-11-21 23:16:00,28.4,24.8,30.45,NNE,23,0.0,0.0,86,0.00,,,0.01,WUHU216HW,2013-11-22 05:16:00,
2013-11-21 23:21:00,28.4,24.8,30.45,NNE,23,0.0,0.0,86,0.00,,,0.01,WUHU216HW,2013-11-22 05:21:00,
2013-11-21 23:26:00,28.4,24.8,30.45,NNE,23,0.0,0.0,86,0.00,,,0.01,WUHU216HW,2013-11-22 05:26:00,
2013-11-21 23:31:00,28.4,24.8,30.46,NNE,23,0.0,0.0,86,0.00,,,0.01,WUHU216HW,2013-11-22 05:31:00,
2013-11-21 23:36:00,28.4,24.8,30.46,NNE,23,0.0,0.0,86,0.00,,,0.01,WUHU216HW,2013-11-22 05:36:00,
2013-11-21 23:41:00,28.4,24.8,30.46,NNE,23,0.0,0.0,86,0.00,,,0.01,WUHU216HW,2013-11-22 05:41:00,
2013-11-21 23:46:00,28.4,24.8,30.47,NNE,23,0.0,0.0,86,0.00,,,0.01,WUHU216HW,2013-11-22 05:46:00,
2013-11-21 23:51:00,28.3,24.6,30.47,NNE,23,0.0,0.0,86,0.00,,,0.01,WUHU216HW,2013-11-22 05:51:00,
2013-11-21 23:56:00,28.3,24.6,30.46,NNE,23,0.0,0.0,86,0.00,,,0.01,WUHU216HW,2013-11-22 05:56:00,